Tracking 28514 objects as of 23-Feb-2024
HD Live streaming from Space Station
objects crossing your sky now

STARLINK-5178

Track STARLINK-5178 now!
10-day predictions
STARLINK-5178 is classified as:


NORAD ID: 54083
Int'l Code: 2022-136AJ
Perigee: 545.6 km
Apogee: 548.2 km
Inclination: 53.2 °
Period: 95.4 minutes
Semi major axis: 6917 km
RCS: Unknown
Launch date: October 20, 2022
Source: United States (US)
Launch site: AIR FORCE EASTERN TEST RANGE (AFETR)
Your satellite tracking list
Your tracking list is empty




NASA's NSSDC Master Catalog

Two Line Element Set (TLE):
1 54083U 22136AJ  24054.35980933  .00008261  00000-0  53672-3 0  9992
2 54083  53.2167  80.1021 0001867 101.1044 259.0159 15.08827667 74946
Source of the keplerian elements: AFSPC